TimeEST,TemperatureF,Dew PointF,Humidity,Sea Level PressureIn,VisibilityMPH,Wind Direction,Wind SpeedMPH,Gust SpeedMPH,PrecipitationIn,Events,Conditions,WindDirDegrees,DateUTC
12:53 AM,27.0,21.9,81,30.27,10.0,Calm,Calm,-,N/A,,Clear,0,2012-11-20 05:53:00
1:53 AM,25.0,21.9,88,30.27,10.0,Calm,Calm,-,N/A,,Clear,0,2012-11-20 06:53:00
2:53 AM,25.0,21.0,85,30.26,10.0,Calm,Calm,-,N/A,,Clear,0,2012-11-20 07:53:00
3:53 AM,23.0,19.9,88,30.24,10.0,North,5.8,-,N/A,,Clear,360,2012-11-20 08:53:00
4:53 AM,26.1,21.9,84,30.23,10.0,NW,3.5,-,N/A,,Clear,310,2012-11-20 09:53:00
5:53 AM,25.0,19.9,81,30.23,10.0,North,4.6,-,N/A,,Clear,350,2012-11-20 10:53:00
6:53 AM,25.0,21.0,85,30.25,10.0,Calm,Calm,-,N/A,,Clear,0,2012-11-20 11:53:00
7:53 AM,28.9,24.1,82,30.25,10.0,North,3.5,-,N/A,,Clear,350,2012-11-20 12:53:00
8:53 AM,34.0,26.1,73,30.23,10.0,NNE,5.8,-,N/A,,Clear,20,2012-11-20 13:53:00
9:53 AM,39.0,24.1,55,30.22,10.0,NNE,9.2,-,N/A,,Clear,30,2012-11-20 14:53:00
10:53 AM,42.1,23.0,47,30.21,10.0,NNE,10.4,-,N/A,,Clear,20,2012-11-20 15:53:00
11:53 AM,46.0,21.9,39,30.17,10.0,ENE,4.6,-,N/A,,Clear,60,2012-11-20 16:53:00
12:53 PM,48.0,23.0,37,30.16,10.0,Calm,Calm,-,N/A,,Clear,0,2012-11-20 17:53:00
1:53 PM,50.0,21.9,33,30.15,10.0,ENE,4.6,-,N/A,,Clear,60,2012-11-20 18:53:00
2:53 PM,50.0,23.0,35,30.15,10.0,North,3.5,-,N/A,,Clear,10,2012-11-20 19:53:00
3:53 PM,46.0,26.1,46,30.15,10.0,North,4.6,-,N/A,,Clear,10,2012-11-20 20:53:00
4:53 PM,43.0,25.0,49,30.15,10.0,Calm,Calm,-,N/A,,Clear,0,2012-11-20 21:53:00
5:53 PM,39.9,26.1,58,30.16,10.0,Calm,Calm,-,N/A,,Clear,0,2012-11-20 22:53:00
6:53 PM,39.9,25.0,55,30.17,10.0,Calm,Calm,-,N/A,,Clear,0,2012-11-20 23:53:00
7:53 PM,37.0,26.1,65,30.17,10.0,Calm,Calm,-,N/A,,Clear,0,2012-11-21 00:53:00
8:53 PM,34.0,26.1,73,30.18,10.0,North,3.5,-,N/A,,Clear,10,2012-11-21 01:53:00
9:53 PM,33.1,25.0,72,30.18,10.0,Calm,Calm,-,N/A,,Clear,0,2012-11-21 02:53:00
10:53 PM,33.1,25.0,72,30.19,10.0,Calm,Calm,-,N/A,,Clear,0,2012-11-21 03:53:00
11:53 PM,30.9,25.0,79,30.19,10.0,Calm,Calm,-,N/A,,Clear,0,2012-11-21 04:53:00